COSMOS 2491 DEB, 45129

Orbit data source: Space-Track

COSMOS 2491 DEB, 45129 is space debris in LEO originally from a launch on Wed, 25 Dec 2013 UTC launched from the Plesetsk Missile And Space Complex (PKMTR). Debris objects in space refer to the collection of defunct objects orbiting the Earth. Examples of debris include non-operational satellites, rocket bodies, and fragments generated from explosions, collisions, or faulty payload assembly.

Loading next visibility...
Identifier
45129, 2013-076AB
Orbit
LEO
Last TLE update
2 weeks ago
Origin
Manufacturer
TsNIIKhM
Mission
Spacecraft
Bus & Motor
Unknown
Mass
Unknown
Launch date (UTC)
2013-12-25 (12 years ago)
Launch vehicle
Unknown
Launch site
Plesetsk Missile And Space Complex (PKMTR)
Object type
Payload
Rocket body
Debris
Shape & HBR
Unknown
Radar Cross Section
Small (<0.1 m²)

Expand to show TLE details & history

TLE from 2 weeks ago
0 COSMOS 2491 DEB
1 45129U 13076AB  25176.21434604  .00003678  00000-0  17412-1 0  9993
2 45129  82.4422 345.9094 0223784 237.5051 120.4239 12.67141392113831
Epoch: 2025-06-25T05:08Z
TLE epoch observation values (Epoch: 2025-06-25T05:08:39.497Z)
Latitude
-0.00006°
Longitude
-4.85431°
Altitude
1,487.271 km
Speed
7.078 km/s
True Right ascension
23h 03m 38s
True Declination
0° 00' 00"
Sunlit
Object was in daylight at epoch
Visualization orbit readout
Latitude
59.23381°
Longitude
155.42545°
Altitude
1,410.023 km
Speed
7.158 km/s
Apparent Right ascension
14h 24m 54s
Apparent Declination
29° 56' 01"
Sunlit
Object is in daylight
Visualization observer readout
Local Sidereal Time
05:44:53
Azimuth
41.884° NE
Elevation
-6.149°
Doppler factor
1
Orbital elements
Apogee altitude
1,564.783 km
Perigee altitude
1,217.064 km
Semi-major axis
7,769.061 km
Eccentricity
0.02238
Inclination
82.4422°
RAAN
345.9094°
Arg. of periapsis
237.5051°
True anomaly
Unknown
Mean anomaly
120.4239°
Eccentric anomaly
Unknown
Mean motion
3.1695 °/min
Orbital period
113.58 mins
BSTAR
0.017412
Loading maneuver chart data...
Loading SW <> Apogee altitude chart data...
Loading historical data...
Loading historical data...
Loading historical data...
Loading historical data...
Loading historical data...
Loading historical data...
Loading historical data...

COSMOS 2491 DEB Visibility forecast

Observer location: undefined°, undefined°

Span
Click to sort rows by Start time (UTC) header in descending order
Start Az.
Max El. time (UTC)
Max El. Az.
Max El.
End time (UTC)
End Az.
14 mins2025-07-05 21:35:27.301Z0.81° NNE2025-07-05 21:42:27.301Z70.413° E40.454°2025-07-05 21:49:27.301Z154.778° SSE
11 mins2025-07-05 23:31:27.301Z323.738° NNW2025-07-05 23:36:27.301Z279.56° WNW23.887°2025-07-05 23:42:27.301Z226.722° WSW
16 mins2025-07-06 10:19:27.301Z163.643° S2025-07-06 10:26:27.301Z96.925° ESE40.489°2025-07-06 10:35:27.301Z15.347° NNE
14 mins2025-07-06 12:15:27.301Z236.39° WSW2025-07-06 12:21:27.301Z287.132° WNW28.268°2025-07-06 12:29:27.301Z350.403° N
|